User: anonymous   Login
Location: Boca do Mato
(22.9085°S, 43.2930°W)
Time: 23:52:49
(UTC+00:00)
Language:

Cosmos 1953 - Orbit

View from above orbital plane
View from above orbital plane
View from above satellite
View from above satellite

Ground track
Ground track

The orbit data is extracted from the following two-line orbital elements,

1 19210U 88050A   20271.50316942  .00000133  00000-0  70365-5 0  9999
2 19210  82.5147 310.7710 0014956 125.4685 234.7940 15.06022515758159
Epoch (UTC): 27 September 2020 12:04:33
Eccentricity: 0.0014956
inclination: 82.5147°
perigee height: 538 km
apogee height: 559 km
right ascension of ascending node: 310.7710°
argument of perigee: 125.4685°
revolutions per day: 15.06022515
mean anomaly at epoch: 234.7940°
orbit number at epoch: 75815

The dashed part of the orbit path shows where the satellite is in the earth's shadow,  

DLR